Location: Poughquag
(41.6090°N, 73.6820°W)
Time: 06:36:29
(UTC-05:00)

STRAND 1 - Pass Details

Date: 29 November 2023
Orbit: 766 x 778 km, 98.4° (Epoch: 24 February)

Event Time Altitude Azimuth Distance (km) Brightness Sun altitude
Exits shadow 18:14:08 32° 41° (NE) 1,302 ? -19.7°
Maximum altitude 18:16:13 52° 100° (E) 949 ? -20.1°
Drops below altitude 10° 18:21:09 10° 177° (S) 2,298 ? -21.0°
Sets 18:23:30 0° 182° (S) 3,221 ? -21.5°
